Regional Weather Roundup
Issued by NWS

Home | Current Version | Previous Version | Text Only | Print | Product List | Glossary On
Versions: 1 2 3 4 5 6 7 8 9 10 11 12 13 14 15 16 17 18 19 20 21 22 23 24 25 26 27 28 29 30 31 32 33 34 35 36 37 38 39 40 41 42 43 44 45 46 47 48 49 50
172
ASUS43 KTOP 230308
RWRKS

WEATHER ROUNDUP FOR KANSAS
NATIONAL WEATHER SERVICE GOODLAND KS
1000 PM CDT TUE AUG 22 2017

NOTE:  "FAIR" INDICATES FEW OR NO CLOUDS BELOW 12,000 FEET WITH NO
SIGNIFICANT WEATHER AND/OR OBSTRUCTIONS TO VISIBILITY.

KSZ001>006-013>018-027>032-041>047-230400-
NORTHWEST KANSAS

CITY           SKY/WX    TMP DP  RH WIND       PRES   REMARKS
GOODLAND       CLEAR     63  55  75 SE5       30.22R
HAYS           CLEAR     68  51  54 E10       30.18R
HILL CITY      CLEAR     66  53  63 E6        30.20R
RUSSELL        CLEAR     67  50  54 NE9       30.17R
$$

KSZ061>065-074>080-084>089-230400-
SOUTHWEST KANSAS

CITY           SKY/WX    TMP DP  RH WIND       PRES   REMARKS
DODGE CITY       N/A     68  53  58 MISG      30.18R
ELKHART          N/A     70  62  76 N5          N/A
GARDEN CITY    CLEAR     69  53  56 E9        30.19R
GREAT BEND     CLEAR     69  52  54 NE8       30.18R
LIBERAL        CLEAR     72  59  63 E12       30.19R
PRATT          CLEAR     70  55  59 NE6       30.16R
$$

KSZ066>073-081>083-090>101-230400-
SOUTHEAST KANSAS

CITY           SKY/WX    TMP DP  RH WIND       PRES   REMARKS
CHANUTE        CLEAR     71  64  78 NE7       30.11R
COFFEYVILLE    CLEAR     72  69  90 N8        30.08R
HUTCHINSON     CLEAR     69  52  54 NE8       30.14R
MEDICINE LODGE   N/A     70  56  61 NE6       30.13R
NEWTON         CLEAR     67  49  52 N10       30.15R
PARSONS        CLEAR     71  65  81 NE5       30.11R
WICHITA INTL   CLEAR     75  52  44 NE13      30.11R
WICHITA JABRA  CLEAR     66  57  72 N8        30.13R
WICHITA MCCONL CLEAR     70  55  59 NE10      30.12R
WINFIELD       CLEAR     73  59  61 E5        30.12R
$$

KSZ007>012-019>026-033>040-048>060-102>105-230400-
NORTHEAST KANSAS

CITY           SKY/WX    TMP DP  RH WIND       PRES   REMARKS
CONCORDIA      CLEAR     64  53  67 NE3       30.17R
EMPORIA        CLEAR     65  58  78 NE8       30.14R
LAWRENCE       CLEAR     61  58  90 NW7       30.14R
MANHATTAN      CLEAR     65  54  67 N3        30.15R
MARYSVILLE     CLEAR     59  54  82 CALM      30.17R
OLATHE IND     CLEAR     61  57  87 N7        30.14R
OLATHE EXE     CLEAR     67  55  65 N7        30.13R
SALINA         CLEAR     74  48  39 NE8       30.16R
TOPEKA BILLARD CLEAR     64  58  80 N7        30.14R
TOPEKA FORBES  CLEAR     67  56  67 NE6       30.14R
$$




USA.gov is the U.S. government's official web portal to all federal, state and local government web resources and services.